User: anonymous   Login
Location: Oshawa
(43.9000°N, 78.8670°W)
Time: 21:21:11
(UTC-05:00)
Language:

SPOT 5 - Orbit

View from above orbital plane
View from above orbital plane
View from above satellite
View from above satellite

Ground track
Ground track

The orbit data is extracted from the following two-line orbital elements,

1 27421U 02021A   14324.56628576  .00000186  00000-0  10708-3 0  1424
2 27421 098.5437 022.5794 0001465 097.9529 037.2769 14.20110543650512
Epoch (UTC): 20 November 2014 13:35:27
Eccentricity: 0.0001465
inclination: 98.5437°
perigee height: 824 km
apogee height: 826 km
right ascension of ascending node: 22.5794°
argument of perigee: 97.9529°
revolutions per day: 14.20110543
mean anomaly at epoch: 37.2769°
orbit number at epoch: 65051

The dashed part of the orbit path shows where the satellite is in the earth's shadow,  

DLR